Voltar ao catálogo

EXPRESS 3A

AtivoComunicaçõesGEO
NORAD 26378·PAYLOAD·🇷🇺 Russia

Lançado Jun 24, 2000 de Baikonur Cosmodrome

Loading…

TLE

AtualizadoSource: Space-Track

Época: Sep 14, 2026, 05:50 UTC

1 26378U 00031A   26257.24318417 -.00000206  00000-0  00000-0 0  9991
2 26378  12.4450  31.5217 0010057 200.8733 331.9074  0.98768671 95103

Acompanhe EXPRESS 3A em tempo real com AllMySat

Download on the App Store